This demonstration page uses our WeatherBlox Daily Observations layout. Learn more.

38.80484, -77.04692

Hourly Observations for August 2, 2019

Temp ( °F °C ) Dew Point ( °F °C ) Humidity (%) Winds ( mph kmh ) Pressure ( in mb ) Visibility ( mi km ) Precip ( " mm )
12:52 am 00:52 Cloudy 77 25 67 19.4 71 71 S 5 7 30.09 1019 10 16.09344 0 0
1:52 am 01:52 Cloudy 77 25 68 20 74 74 S 6 9 30.09 1019 10 16.09344 0 0
2:11 am 02:11 Cloudy 77 25 69 20.6 77 77 ESE 3 6 30.09 1019 10 16.09344 0 0
2:52 am 02:52 Cloudy 77 25 69 20.6 77 77 ENE 3 6 30.09 1019 10 16.09344 0 0
3:08 am 03:08 Cloudy with Thunderstorms 77 25 69 20.6 77 77 ENE 3 6 30.09 1019 10 16.09344 0 0
3:52 am 03:52 Cloudy with Thunderstorms 76 24.4 69 20.6 79 79 ENE 7 11 30.06 1018 10 16.09344 0 0
4:18 am 04:18 Cloudy with Nearby Thunderstorms 76 24.4 69 20.6 79 79 Calm 30.09 1019 10 16.09344 0 0
4:52 am 04:52 Cloudy with Nearby Thunderstorms 76 24.4 69 20.6 79 79 ESE 5 7 30.09 1019 10 16.09344 0 0
5:07 am 05:07 Cloudy with Nearby Thunderstorms 76 24.4 70 21.1 82 82 SSE 8 13 30.09 1019 10 16.09344 0 0
5:24 am 05:24 Cloudy with Nearby Thunderstorms 76 24.4 71 21.7 85 85 S 7 11 30.09 1019 10 16.09344 0 0
5:28 am 05:28 Cloudy with Thunderstorms 76 24.4 71 21.7 85 85 S 8 13 30.09 1019 10 16.09344 0 0
5:44 am 05:44 Cloudy with Thunderstorms 75 23.9 71 21.7 88 88 S 10 17 30.12 1020 10 16.09344 0 0
5:47 am 05:47 Cloudy with Thunderstorms 75 24 72 22 89 89 SSW 10 17 30.12 1020 10 16.09344 0 0
5:52 am 05:52 Cloudy with Nearby Thunderstorms 75 23.9 70 21.1 84 84 SSW 12 19 30.09 1019 10 16.09344 0.001 0.001
5:56 am 05:56 Cloudy with Light Thunderstorms 74 23.3 69 20.6 85 85 SSW 10 17 30.12 1020 10 16.09344 0.001 0.001
6:11 am 06:11 Cloudy with Light Rain 73 22.8 68 20 84 84 SSW 12 19 30.12 1020 10 16.09344 0.001 0.001
6:30 am 06:30 Cloudy with Light Thunderstorms 72 22.2 68 20 87 87 S 8 13 30.12 1020 10 16.09344 0.001 0.001
6:52 am 06:52 Cloudy with Light Thunderstorms 72 22.2 67 19.4 84 84 Calm 30.09 1019 10 16.09344 0.001 0.001
7:00 am 07:00 Cloudy with Nearby Thunderstorms 72 22.2 67 19.4 84 84 N 3 6 30.12 1020 10 16.09344 0.001 0.001
7:33 am 07:33 Cloudy 74 23.3 67 19.4 79 79 Calm 30.09 1019 10 16.09344 0.001 0.001
7:52 am 07:52 Mostly Cloudy 73 22.8 67 19.4 81 81 WNW 7 11 30.09 1019 10 16.09344 0.001 0.001
8:52 am 08:52 Mostly Cloudy 74 23.3 67 19.4 79 79 S 7 11 30.15 1021 10 16.09344 0 0
9:52 am 09:52 Cloudy 74 23.3 66 18.9 76 76 S 7 11 30.12 1020 10 16.09344 0 0
10:52 am 10:52 Mostly Cloudy 78 25.6 65 18.3 64 64 Calm 30.12 1020 10 16.09344 0 0
11:52 am 11:52 Mostly Cloudy 81 27.2 63 17.2 54 54 VRB 3 6 30.12 1020 10 16.09344 0 0
12:52 pm 12:52 Cloudy 83 28.3 63 17.2 51 51 S 7 11 30.12 1020 10 16.09344 0 0
1:52 pm 13:52 Cloudy 86 30 65 18.3 49 49 S 7 11 30.09 1019 10 16.09344 0 0
2:52 pm 14:52 Cloudy 86 30 63 17.2 46 46 S 14 22 30.09 1019 10 16.09344 0 0
3:52 pm 15:52 Mostly Cloudy 85 29.4 65 18.3 51 51 S 12 19 30.06 1018 10 16.09344 0 0
4:52 pm 16:52 Mostly Cloudy 85 29.4 64 17.8 50 50 S 8 13 30.06 1018 10 16.09344 0 0
5:52 pm 17:52 Mostly Cloudy 86 30 65 18.3 49 49 S 9 15 30.06 1018 10 16.09344 0 0
6:52 pm 18:52 Mostly Cloudy 84 28.9 66 18.9 55 55 S 10 17 30.03 1017 10 16.09344 0 0
7:52 pm 19:52 Mostly Cloudy 81 27.2 69 20.6 67 67 SSE 9 15 30.06 1018 10 16.09344 0 0
8:52 pm 20:52 Mostly Cloudy 79 26.1 67 19.4 67 67 SSE 8 13 30.06 1018 10 16.09344 0 0
9:52 pm 21:52 Mostly Cloudy 78 25.6 68 20 71 71 S 7 11 30.06 1018 10 16.09344 0 0
10:52 pm 22:52 Cloudy 78 25.6 70 21.1 76 76 S 7 11 30.06 1018 10 16.09344 0 0
11:52 pm 23:52 Mostly Cloudy 76 24.4 70 21.1 82 82 S 5 7 30.06 1018 10 16.09344 0 0

Powered by AerisWeather